Location: Çayiçi
(36.4667°N, 30.2333°E)
Time: 03:10:58
(UTC+00:00)

NOSS 0 Rocket - Pass Details

Date: 09 February 2023
Orbit: 935 x 954 km, 70.0° (Epoch: 01 April)

Event Time Altitude Azimuth Distance (km) Brightness Sun altitude
Rises 17:13:31 0° 210° (SSW) 3,604 7.4 -20.6°
Reaches altitude 10° 17:16:03 10° 214° (SSW) 2,665 6.7 -21.1°
Maximum altitude 17:22:12 64° 295° (WNW) 1,049 4.3 -22.4°
Drops below altitude 10° 17:28:24 10° 17° (NNE) 2,687 6.1 -23.6°
Enters shadow 17:29:18 - 18° (NNE) 3,015 6.4 -23.8°
